Madison, MN

11:13 AM CDT on October 17, 2019 (GMT -0500)
Madison-Lac Qui Parle County

Weather History for KDXX - August, 2019

Change the Weather History Date:

Thursday, August 1, 2019

  Actual Average (KAQP) Record (KAQP)
Temperature  
Mean Temperature 73 °F -  
Max Temperature 82 °F 79 °F 93 °F (2012)
Min Temperature 64 °F 58 °F 53 °F (2003)
Cooling Degree Days 8    
Growing Degree Days 23 (Base 50)    
Moisture  
Dew Point 67 °F    
Average Humidity 80    
Maximum Humidity 100    
Minimum Humidity 54    
Precipitation  
Precipitation 0.00 in - - ()
Sea Level Pressure  
Sea Level Pressure 30.12 in    
Wind  
Wind Speed 6 mph (SSE)    
Max Wind Speed 9 mph    
Max Gust Speed -    
Visibility 10 miles    
Events      
Averages and records for this station are not official NWS values.
T = Trace of Precipitation, MM = Missing Value Source: NWS Daily Summary

Daily Weather History Graph

Daily Weather History Graph

Search for Another Location

Airport or City:

Astronomy

Aug. 01, 2019 Rise Set
Actual Time 6:09 AM CDT 8:51 PM CDT
Civil Twilight 5:36 AM CDT 9:25 PM CDT
Nautical Twilight 4:53 AM CDT 10:07 PM CDT
Astronomical Twilight 4:04 AM CDT 10:56 PM CDT
Moon 6:35 AM CDT (8/1) 9:38 PM CDT (8/1)
Length of Visible Light 15h 48m
Length of Day
14h 41m
New Moon, 1% of the Moon is Illuminated
Aug 1
New Moon
Aug 7
First Quarter
Aug 15
Full
Aug 23
Last Quarter
Aug 30
New

Hourly Weather History & Observations

Time (CDT) Temp. Heat Index Dew Point Humidity Pressure Visibility Wind Dir Wind Speed Gust Speed Precip Events Conditions
12:16 AM 69.8 °F - 64.4 °F 83% 30.12 in 10.0 mi SSE 6.9 mph - N/A   Clear
12:36 AM 69.8 °F - 64.4 °F 83% 30.11 in 10.0 mi SE 6.9 mph - N/A   Clear
12:55 AM 69.8 °F - 64.4 °F 83% 30.13 in 10.0 mi SSE 4.6 mph - N/A   Clear
1:15 AM 68.0 °F - 64.4 °F 88% 30.12 in 10.0 mi SSE 4.6 mph - N/A   Clear
1:19 AM 68.0 °F - 64.4 °F 88% 30.12 in 10.0 mi SSE 5.8 mph - N/A   Clear
1:38 AM 68.0 °F - 64.4 °F 88% 30.11 in 10.0 mi SSE 4.6 mph - N/A   Clear
1:55 AM 68.0 °F - 64.4 °F 88% 30.11 in 10.0 mi SSE 4.6 mph - N/A   Clear
2:15 AM 68.0 °F - 64.4 °F 88% 30.12 in 10.0 mi SSE 4.6 mph - N/A   Clear
2:16 AM 68.0 °F - 64.4 °F 88% 30.12 in 10.0 mi SSE 4.6 mph - N/A   Clear
2:35 AM 68.0 °F - 64.4 °F 88% 30.11 in 10.0 mi SSE 4.6 mph - N/A   Clear
2:58 AM 66.2 °F - 64.4 °F 94% 30.09 in 10.0 mi SSE 5.8 mph - N/A   Clear
3:16 AM 66.2 °F - 64.4 °F 94% 30.09 in 10.0 mi SE 3.5 mph - N/A   Clear
3:35 AM 66.2 °F - 64.4 °F 94% 30.09 in 10.0 mi SE 4.6 mph - N/A   Clear
3:55 AM 66.2 °F - 64.4 °F 94% 30.09 in 10.0 mi South 3.5 mph - N/A   Clear
3:56 AM 66.2 °F - 64.4 °F 94% 30.09 in 10.0 mi South 3.5 mph - N/A   Clear
4:15 AM 66.2 °F - 64.4 °F 94% 30.09 in 10.0 mi SSE 3.5 mph - N/A   Clear
4:20 AM 66.2 °F - 64.4 °F 94% 30.09 in 10.0 mi SE 4.6 mph - N/A   Clear
4:38 AM 66.2 °F - 64.4 °F 94% 30.09 in 10.0 mi SSE 4.6 mph - N/A   Clear
4:55 AM 64.4 °F - 62.6 °F 94% 30.10 in 10.0 mi SSE 4.6 mph - N/A   Clear
5:15 AM 64.4 °F - 64.4 °F 100% 30.10 in 10.0 mi SE 3.5 mph - N/A   Clear
5:35 AM 64.4 °F - 62.6 °F 94% 30.11 in 10.0 mi Calm Calm - N/A   Clear
5:36 AM 64.4 °F - 62.6 °F 94% 30.11 in 10.0 mi Calm Calm - N/A   Clear
5:58 AM 64.4 °F - 64.4 °F 100% 30.11 in 10.0 mi SE 4.6 mph - N/A   Mostly Cloudy
6:17 AM 64.4 °F - 64.4 °F 100% 30.12 in 10.0 mi SE 4.6 mph - N/A   Overcast
6:36 AM 66.2 °F - 64.4 °F 94% 30.12 in 10.0 mi SE 4.6 mph - N/A   Overcast
6:55 AM 66.2 °F - 66.2 °F 100% 30.13 in 10.0 mi SE 5.8 mph - N/A   Overcast
6:56 AM 66.2 °F - 66.2 °F 100% 30.13 in 10.0 mi SE 5.8 mph - N/A   Overcast
7:15 AM 66.2 °F - 66.2 °F 100% 30.13 in 10.0 mi SE 5.8 mph - N/A   Mostly Cloudy
7:37 AM 69.8 °F - 66.2 °F 88% 30.14 in 10.0 mi SSE 3.5 mph - N/A   Mostly Cloudy
7:56 AM 69.8 °F - 66.2 °F 88% 30.14 in 10.0 mi SE 5.8 mph - N/A   Scattered Clouds
8:15 AM 69.8 °F - 66.2 °F 88% 30.13 in 10.0 mi SE 8.1 mph - N/A   Scattered Clouds
8:16 AM 69.8 °F - 66.2 °F 88% 30.13 in 10.0 mi SE 8.1 mph - N/A   Scattered Clouds
8:35 AM 71.6 °F - 66.2 °F 83% 30.14 in 10.0 mi SSE 5.8 mph - N/A   Mostly Cloudy
8:36 AM 71.6 °F - 66.2 °F 83% 30.14 in 10.0 mi SSE 5.8 mph - N/A   Mostly Cloudy
8:59 AM 71.6 °F - 66.2 °F 83% 30.14 in 10.0 mi SE 5.8 mph - N/A   Overcast
9:16 AM 71.6 °F - 66.2 °F 83% 30.15 in 10.0 mi SSE 5.8 mph - N/A   Mostly Cloudy
9:36 AM 71.6 °F - 66.2 °F 83% 30.15 in 10.0 mi SE 9.2 mph - N/A   Mostly Cloudy
9:55 AM 73.4 °F - 66.2 °F 78% 30.15 in 10.0 mi SSE 8.1 mph - N/A   Mostly Cloudy
9:56 AM 73.4 °F - 66.2 °F 78% 30.15 in 10.0 mi SSE 8.1 mph - N/A   Scattered Clouds
10:15 AM 75.2 °F - 66.2 °F 73% 30.15 in 10.0 mi South 8.1 mph - N/A   Scattered Clouds
10:19 AM 75.2 °F - 64.4 °F 69% 30.15 in 10.0 mi South 5.8 mph - N/A   Mostly Cloudy
10:37 AM 75.2 °F - 66.2 °F 73% 30.16 in 10.0 mi South 5.8 mph - N/A   Mostly Cloudy
10:56 AM 77.0 °F - 66.2 °F 69% 30.15 in 10.0 mi SSE 8.1 mph - N/A   Overcast
11:15 AM 77.0 °F - 66.2 °F 69% 30.15 in 10.0 mi SSE 5.8 mph - N/A   Mostly Cloudy
11:16 AM 77.0 °F - 66.2 °F 69% 30.15 in 10.0 mi SE 6.9 mph - N/A   Mostly Cloudy
11:35 AM 78.8 °F - 66.2 °F 65% 30.14 in 10.0 mi SSE 9.2 mph - N/A   Scattered Clouds
11:36 AM 78.8 °F - 66.2 °F 65% 30.14 in 10.0 mi SSE 9.2 mph - N/A   Scattered Clouds
11:58 AM 78.8 °F - 66.2 °F 65% 30.14 in 10.0 mi South 6.9 mph - N/A   Clear
12:16 PM 78.8 °F - 68.0 °F 69% 30.14 in 10.0 mi SSE 8.1 mph - N/A   Clear
12:35 PM 80.6 °F 82.7 °F 66.2 °F 61% 30.14 in 10.0 mi SSE 6.9 mph - N/A   Clear
12:55 PM 80.6 °F 82.7 °F 66.2 °F 61% 30.14 in 10.0 mi SSE 8.1 mph - N/A   Clear
12:56 PM 80.6 °F 82.7 °F 66.2 °F 61% 30.14 in 10.0 mi SSE 9.2 mph - N/A   Clear
1:15 PM 82.4 °F 83.9 °F 64.4 °F 54% 30.13 in 10.0 mi South 8.1 mph - N/A   Clear
1:19 PM 82.4 °F 83.9 °F 64.4 °F 54% 30.13 in 10.0 mi SSE 8.1 mph - N/A   Clear
1:38 PM 82.4 °F 83.9 °F 64.4 °F 54% 30.14 in 10.0 mi South 5.8 mph - N/A   Clear
1:55 PM 82.4 °F 84.6 °F 66.2 °F 58% 30.13 in 10.0 mi SSE 6.9 mph - N/A   Clear
2:15 PM 82.4 °F 85.4 °F 68.0 °F 62% 30.13 in 10.0 mi SE 5.8 mph - N/A   Clear
2:16 PM 82.4 °F 85.4 °F 68.0 °F 62% 30.13 in 10.0 mi SE 5.8 mph - N/A   Clear
2:35 PM 82.4 °F 84.6 °F 66.2 °F 58% 30.13 in 10.0 mi SSE 6.9 mph - N/A   Clear
2:58 PM 82.4 °F 86.3 °F 69.8 °F 66% 30.13 in 10.0 mi SE 8.1 mph - N/A   Clear
3:17 PM 82.4 °F 86.3 °F 69.8 °F 66% 30.13 in 10.0 mi SE 8.1 mph - N/A   Clear
3:55 PM 82.4 °F 86.3 °F 69.8 °F 66% 30.12 in 10.0 mi SE 8.1 mph - N/A   Clear
3:56 PM 82.4 °F 86.3 °F 69.8 °F 66% 30.12 in 10.0 mi SSE 6.9 mph - N/A   Clear
4:18 PM 82.4 °F 86.3 °F 69.8 °F 66% 30.12 in 10.0 mi SSE 4.6 mph - N/A   Clear
4:36 PM 82.4 °F 86.3 °F 69.8 °F 66% 30.12 in 10.0 mi SSE 8.1 mph - N/A   Clear
4:55 PM 82.4 °F 86.3 °F 69.8 °F 66% 30.11 in 10.0 mi SSE 5.8 mph - N/A   Clear
4:56 PM 82.4 °F 86.3 °F 69.8 °F 66% 30.12 in 10.0 mi SSE 5.8 mph - N/A   Clear
5:15 PM 82.4 °F 87.2 °F 71.6 °F 70% 30.11 in 10.0 mi SE 6.9 mph - N/A   Clear
5:16 PM 82.4 °F 87.2 °F 71.6 °F 70% 30.11 in 10.0 mi SE 6.9 mph - N/A   Clear
5:35 PM 82.4 °F 86.3 °F 69.8 °F 66% 30.11 in 10.0 mi SE 6.9 mph - N/A   Clear
5:40 PM 82.4 °F 86.3 °F 69.8 °F 66% 30.11 in 10.0 mi SE 4.6 mph - N/A   Clear
5:58 PM 80.6 °F 84.6 °F 71.6 °F 74% 30.10 in 10.0 mi SE 8.1 mph - N/A   Clear
6:15 PM 80.6 °F 84.6 °F 71.6 °F 74% 30.10 in 10.0 mi SE 6.9 mph - N/A   Clear
6:35 PM 80.6 °F 84.6 °F 71.6 °F 74% 30.09 in 10.0 mi SE 9.2 mph - N/A   Clear
6:36 PM 80.6 °F 84.6 °F 71.6 °F 74% 30.09 in 10.0 mi SE 8.1 mph - N/A   Clear
6:55 PM 80.6 °F 84.6 °F 71.6 °F 74% 30.09 in 10.0 mi SE 6.9 mph - N/A   Clear
7:18 PM 78.8 °F - 71.6 °F 78% 30.10 in 10.0 mi ESE 6.9 mph - N/A   Clear
7:37 PM 78.8 °F - 71.6 °F 78% 30.10 in 10.0 mi SE 4.6 mph - N/A   Clear
7:56 PM 78.8 °F - 71.6 °F 78% 30.10 in 10.0 mi SE 6.9 mph - N/A   Clear
8:15 PM 78.8 °F - 71.6 °F 78% 30.10 in 10.0 mi SE 5.8 mph - N/A   Clear
8:16 PM 78.8 °F - 71.6 °F 78% 30.10 in 10.0 mi SE 5.8 mph - N/A   Clear
8:35 PM 77.0 °F - 69.8 °F 78% 30.10 in 10.0 mi SE 3.5 mph - N/A   Clear
8:39 PM 75.2 °F - 69.8 °F 83% 30.10 in 10.0 mi SE 3.5 mph - N/A   Clear
8:57 PM 75.2 °F - 69.8 °F 83% 30.10 in 10.0 mi SSE 4.6 mph - N/A   Clear
9:16 PM 73.4 °F - 71.6 °F 94% 30.11 in 10.0 mi SE 4.6 mph - N/A   Clear
9:35 PM 73.4 °F - 69.8 °F 88% 30.11 in 10.0 mi SSE 4.6 mph - N/A   Clear
9:36 PM 73.4 °F - 71.6 °F 94% 30.11 in 10.0 mi SSE 4.6 mph - N/A   Scattered Clouds
9:55 PM 73.4 °F - 69.8 °F 88% 30.11 in 10.0 mi SE 4.6 mph - N/A   Mostly Cloudy
9:56 PM 73.4 °F - 69.8 °F 88% 30.11 in 10.0 mi SE 4.6 mph - N/A   Mostly Cloudy
10:19 PM 73.4 °F - 69.8 °F 88% 30.12 in 10.0 mi SE 3.5 mph - N/A   Scattered Clouds
10:36 PM 73.4 °F - 71.6 °F 94% 30.11 in 10.0 mi SE 4.6 mph - N/A   Mostly Cloudy
10:56 PM 73.4 °F - 71.6 °F 94% 30.11 in 10.0 mi SE 3.5 mph - N/A   Scattered Clouds
11:15 PM 73.4 °F - 71.6 °F 94% 30.11 in 10.0 mi SSE 4.6 mph - N/A   Clear
11:16 PM 73.4 °F - 71.6 °F 94% 30.11 in 10.0 mi SSE 4.6 mph - N/A   Clear
11:35 PM 73.4 °F - 71.6 °F 94% 30.11 in 10.0 mi SSE 4.6 mph - N/A   Mostly Cloudy
11:39 PM 73.4 °F - 71.6 °F 94% 30.12 in 10.0 mi SSE 4.6 mph - N/A   Mostly Cloudy
11:58 PM 73.4 °F - 71.6 °F 94% 30.12 in 10.0 mi Calm Calm - N/A   Mostly Cloudy